Location: Blackwall
(51.5097°N, 0.0016°W)
Time: 00:17:43
(UTC+00:00)

CZ-2C R/B - Pass Details

Date: 15 May 2026
Orbit: 332 x 344 km, 97.7° (Epoch: 9 June)

Event Time Altitude Azimuth Distance (km) Brightness Sun altitude
Exits shadow 20:28:41 - 104° (ESE) 1,552 4.6 -6.2°
Reaches altitude 10° 20:29:51 10° 85° (E) 1,274 4.3 -6.3°
Drops below altitude 10° 20:31:57 10° 39° (NE) 1,279 4.8 -6.6°
Enters shadow 21:24:34 -73° 168° (SSE) 12,532 9.6 -12.0°
Maximum altitude 22:01:19 38° 260° (W) 527 2.9 -15.1°
